TimeMDT,TemperatureF,Dew PointF,Humidity,Sea Level PressureIn,VisibilityMPH,Wind Direction,Wind SpeedMPH,Gust SpeedMPH,PrecipitationIn,Events,Conditions,WindDirDegrees,DateUTC
12:53 AM,68.0,48.0,49,30.00,10.0,South,8.1,-,N/A,,Clear,180,2013-08-30 06:53:00
1:53 AM,70.0,48.0,46,29.97,10.0,South,10.4,-,N/A,,Clear,180,2013-08-30 07:53:00
2:53 AM,66.0,48.9,54,29.98,10.0,East,5.8,-,N/A,,Clear,100,2013-08-30 08:53:00
3:53 AM,66.9,48.9,52,29.96,10.0,Calm,Calm,-,N/A,,Partly Cloudy,0,2013-08-30 09:53:00
4:53 AM,66.0,48.9,54,29.96,10.0,East,3.5,-,N/A,,Clear,80,2013-08-30 10:53:00
5:53 AM,66.0,48.9,54,29.96,10.0,ESE,3.5,-,N/A,,Clear,110,2013-08-30 11:53:00
6:53 AM,66.0,48.9,54,29.98,10.0,SE,4.6,-,N/A,,Clear,130,2013-08-30 12:53:00
7:53 AM,75.0,51.1,43,29.99,10.0,SSW,5.8,-,N/A,,Clear,210,2013-08-30 13:53:00
8:53 AM,80.1,51.1,36,29.99,10.0,SW,11.5,-,N/A,,Clear,220,2013-08-30 14:53:00
9:53 AM,84.0,51.1,32,29.97,10.0,WSW,9.2,-,N/A,,Clear,240,2013-08-30 15:53:00
10:53 AM,87.1,50.0,28,29.96,10.0,WNW,9.2,-,N/A,,Clear,300,2013-08-30 16:53:00
11:53 AM,91.0,46.9,22,29.96,10.0,ENE,4.6,-,N/A,,Clear,60,2013-08-30 17:53:00
12:53 PM,91.9,43.0,18,29.94,10.0,NW,8.1,-,N/A,,Clear,310,2013-08-30 18:53:00
1:53 PM,93.0,39.9,16,29.91,10.0,WNW,12.7,18.4,N/A,,Clear,300,2013-08-30 19:53:00
2:53 PM,95.0,39.9,15,29.88,10.0,West,8.1,-,N/A,,Mostly Cloudy,270,2013-08-30 20:53:00
3:53 PM,93.9,37.9,14,29.86,10.0,WNW,4.6,-,N/A,,Clear,300,2013-08-30 21:53:00
4:53 PM,95.0,39.0,14,29.85,10.0,NW,12.7,16.1,N/A,,Partly Cloudy,320,2013-08-30 22:53:00
5:53 PM,93.0,39.0,15,29.83,10.0,NNE,5.8,-,N/A,,Clear,30,2013-08-30 23:53:00
6:53 PM,87.1,43.0,21,29.85,10.0,NNE,4.6,-,N/A,,Clear,20,2013-08-31 00:53:00
7:53 PM,78.1,41.0,27,29.85,10.0,North,5.8,-,N/A,,Clear,350,2013-08-31 01:53:00
8:53 PM,68.0,41.0,37,29.88,10.0,WNW,3.5,-,N/A,,Clear,290,2013-08-31 02:53:00
9:53 PM,68.0,41.0,37,29.87,10.0,SW,3.5,-,N/A,,Clear,220,2013-08-31 03:53:00
10:53 PM,62.1,42.1,48,29.87,10.0,SW,4.6,-,N/A,,Clear,220,2013-08-31 04:53:00
11:53 PM,66.0,42.1,42,29.86,10.0,SSW,4.6,-,N/A,,Clear,200,2013-08-31 05:53:00